^^
Saratoga-Weather Station Historical Data
Daily Summary for March 6, 2021 Units:  English    Metric   Both
Daily Weekly Monthly Yearly Custom
  High: Low: Average:
Temperature: 65.1 °F 58.1 °F 61.3 °F
Dew Point: 58.1 °F 54.5 °F 56.3 °F
Humidity: 90% 76% 84%
Wind Speed: 8.1mph 0mph 2.3mph
Wind Gust: 9mph - -
Wind- - WSW
Pressure: 30.2 in 30.2 in -
Precipitation: 0 in    
Historical Graphs
 
 
Tabular Data for March 6, 2021
Time Temperature Dew Point Pressure Wind Wind Speed Wind Gust Humidity Rainfall Rate (Hourly) solar
00:03 58.8 °F 55.9 °F 30.2 in West 2.9 mph 6 mph 90% 0 in 0 W/m2
00:08 58.8 °F 55.9 °F 30.2 in WNW 2.9 mph 8 mph 90% 0 in 0 W/m2
00:13 58.8 °F 55.9 °F 30.2 in West 2.9 mph 6 mph 90% 0 in 0 W/m2
00:18 58.8 °F 55.9 °F 30.2 in West 6 mph 7 mph 90% 0 in 0 W/m2
00:23 58.8 °F 55.9 °F 30.2 in WNW 2 mph 8 mph 90% 0 in 0 W/m2
00:28 58.8 °F 55.9 °F 30.2 in WSW 2.9 mph 6 mph 90% 0 in 0 W/m2
00:33 58.8 °F 55.9 °F 30.2 in SW 2 mph 8 mph 90% 0 in 0 W/m2
00:38 58.8 °F 55.9 °F 30.2 in WNW 0.9 mph 4 mph 90% 0 in 0 W/m2
00:43 58.8 °F 55.9 °F 30.2 in WNW 2 mph 3 mph 90% 0 in 0 W/m2
00:48 58.6 °F 55.8 °F 30.2 in West 2.9 mph 4 mph 90% 0 in 0 W/m2
00:53 58.6 °F 55.8 °F 30.2 in West 2.9 mph 6 mph 90% 0 in 0 W/m2
00:58 58.6 °F 55.8 °F 30.2 in WNW 2 mph 4 mph 90% 0 in 0 W/m2
01:03 58.6 °F 55.8 °F 30.2 in West 2.9 mph 6 mph 90% 0 in 0 W/m2
01:08 58.6 °F 55.8 °F 30.2 in WSW 4 mph 5 mph 90% 0 in 0 W/m2
01:13 58.6 °F 55.8 °F 30.2 in WSW 2 mph 4 mph 90% 0 in 0 W/m2
01:18 58.6 °F 55.8 °F 30.2 in NW 2.9 mph 4 mph 90% 0 in 0 W/m2
01:23 58.6 °F 55.8 °F 30.2 in WNW 2 mph 4 mph 90% 0 in 0 W/m2
01:28 58.6 °F 55.8 °F 30.2 in WSW 2.9 mph 6 mph 90% 0 in 0 W/m2
01:33 58.6 °F 55.8 °F 30.2 in WSW 2 mph 6 mph 90% 0 in 0 W/m2
01:38 58.6 °F 55.8 °F 30.2 in West 2 mph 5 mph 90% 0 in 0 W/m2
01:43 58.6 °F 55.8 °F 30.2 in WSW 2.9 mph 7 mph 90% 0 in 0 W/m2
01:48 58.6 °F 55.8 °F 30.2 in WNW 0.9 mph 5 mph 90% 0 in 0 W/m2
01:53 58.5 °F 55.6 °F 30.2 in West 4 mph 7 mph 90% 0 in 0 W/m2
01:58 58.5 °F 55.6 °F 30.2 in West 2 mph 3 mph 90% 0 in 0 W/m2
02:03 58.5 °F 55.6 °F 30.2 in WSW 4 mph 6 mph 90% 0 in 0 W/m2
02:08 58.5 °F 55.6 °F 30.2 in West 6 mph 6 mph 90% 0 in 0 W/m2
02:13 58.5 °F 55.6 °F 30.2 in WSW 2.9 mph 8 mph 90% 0 in 0 W/m2
02:18 58.5 °F 55.6 °F 30.2 in WNW 4 mph 5 mph 90% 0 in 0 W/m2
02:23 58.5 °F 55.6 °F 30.2 in WSW 4 mph 8 mph 90% 0 in 0 W/m2
02:28 58.5 °F 55.6 °F 30.2 in NW 2 mph 4 mph 90% 0 in 0 W/m2
02:33 58.6 °F 55.8 °F 30.2 in WSW 2.9 mph 5 mph 90% 0 in 0 W/m2
02:38 58.5 °F 55.6 °F 30.2 in West 4 mph 4 mph 90% 0 in 0 W/m2
02:43 58.5 °F 55.6 °F 30.2 in West 2 mph 4 mph 90% 0 in 0 W/m2
02:48 58.5 °F 55.6 °F 30.2 in West 2 mph 4 mph 90% 0 in 0 W/m2
02:53 58.5 °F 55.6 °F 30.2 in West 2.9 mph 4 mph 90% 0 in 0 W/m2
02:58 58.5 °F 55.6 °F 30.2 in WNW 2.9 mph 4 mph 90% 0 in 0 W/m2
03:03 58.5 °F 55.6 °F 30.2 in WNW 2 mph 3 mph 90% 0 in 0 W/m2
03:08 58.5 °F 55.6 °F 30.2 in West 2 mph 4 mph 90% 0 in 0 W/m2
03:13 58.5 °F 55.6 °F 30.2 in West 2 mph 3 mph 90% 0 in 0 W/m2
03:18 58.5 °F 55.6 °F 30.2 in WNW 2 mph 3 mph 90% 0 in 0 W/m2
03:23 58.5 °F 55.6 °F 30.2 in West 2 mph 3 mph 90% 0 in 0 W/m2
03:28 58.5 °F 55.6 °F 30.2 in West 2 mph 2 mph 90% 0 in 0 W/m2
03:33 58.5 °F 55.6 °F 30.2 in WNW 2.9 mph 3 mph 90% 0 in 0 W/m2
03:38 58.6 °F 55.8 °F 30.2 in West 2 mph 4 mph 90% 0 in 0 W/m2
03:43 58.6 °F 55.8 °F 30.2 in SW 0.9 mph 4 mph 90% 0 in 0 W/m2
03:48 58.6 °F 55.8 °F 30.2 in West 0.9 mph 2 mph 90% 0 in 0 W/m2
03:53 58.5 °F 55.6 °F 30.2 in WSW 2 mph 4 mph 90% 0 in 0 W/m2
03:58 58.5 °F 55.6 °F 30.2 in WSW 0.9 mph 3 mph 90% 0 in 0 W/m2
04:03 58.5 °F 55.6 °F 30.2 in WSW 2 mph 2 mph 90% 0 in 0 W/m2
04:08 58.5 °F 55.6 °F 30.2 in Calm   3 mph 90% 0 in 0 W/m2
04:13 58.5 °F 55.6 °F 30.2 in Calm     90% 0 in 0 W/m2
04:18 58.5 °F 55.6 °F 30.2 in WSW 0.9 mph 3 mph 90% 0 in 0 W/m2
04:23 58.6 °F 55.8 °F 30.2 in Calm   2 mph 90% 0 in 0 W/m2
04:28 58.6 °F 55.8 °F 30.2 in Calm   3 mph 90% 0 in 0 W/m2
04:33 58.5 °F 55.6 °F 30.2 in West 2 mph 2 mph 90% 0 in 0 W/m2
04:38 58.5 °F 55.6 °F 30.2 in West 0.9 mph 2 mph 90% 0 in 0 W/m2
04:43 58.5 °F 55.6 °F 30.2 in West 2.9 mph 3 mph 90% 0 in 0 W/m2
04:48 58.5 °F 55.6 °F 30.2 in West 4 mph 4 mph 90% 0 in 0 W/m2
04:53 58.5 °F 55.2 °F 30.2 in West 2.9 mph 7 mph 89% 0 in 0 W/m2
04:58 58.5 °F 55.2 °F 30.2 in West 2.9 mph 6 mph 89% 0 in 0 W/m2
05:03 58.5 °F 55.2 °F 30.2 in NW 2.9 mph 7 mph 89% 0 in 0 W/m2
05:08 58.5 °F 55.2 °F 30.2 in NW 2 mph 5 mph 89% 0 in 0 W/m2
05:13 58.5 °F 55.2 °F 30.2 in West 4 mph 7 mph 89% 0 in 0 W/m2
05:18 58.5 °F 55.2 °F 30.2 in WNW 2.9 mph 4 mph 89% 0 in 0 W/m2
05:23 58.5 °F 55.2 °F 30.2 in NW 7 mph 7 mph 89% 0 in 0 W/m2
05:28 58.5 °F 55.2 °F 30.2 in WNW 2 mph 3 mph 89% 0 in 0 W/m2
05:33 58.5 °F 55.2 °F 30.2 in NW 2 mph 3 mph 89% 0 in 0 W/m2
05:38 58.5 °F 55.2 °F 30.2 in West 2.9 mph 4 mph 89% 0 in 0 W/m2
05:43 58.3 °F 55 °F 30.2 in WSW 2 mph 3 mph 89% 0 in 0 W/m2
05:48 58.3 °F 55 °F 30.2 in WNW 2 mph 4 mph 89% 0 in 0 W/m2
05:53 58.3 °F 54.7 °F 30.2 in WNW 4.9 mph 7 mph 88% 0 in 0 W/m2
05:58 58.3 °F 54.7 °F 30.2 in WNW 2.9 mph 5 mph 88% 0 in 0 W/m2
06:03 58.3 °F 54.7 °F 30.2 in West 4 mph 6 mph 88% 0 in 5 W/m2
06:08 58.3 °F 54.7 °F 30.2 in WNW 2 mph 7 mph 88% 0 in 5 W/m2
06:13 58.3 °F 55 °F 30.2 in WNW 0.9 mph 3 mph 89% 0 in 7 W/m2
06:18 58.3 °F 55 °F 30.2 in West 2 mph 4 mph 89% 0 in 7 W/m2
06:23 58.3 °F 54.7 °F 30.2 in West 4 mph 6 mph 88% 0 in 9 W/m2
06:28 58.1 °F 54.9 °F 30.2 in WNW 2 mph 6 mph 89% 0 in 11 W/m2
06:33 58.1 °F 54.5 °F 30.2 in West 2 mph 5 mph 88% 0 in 12 W/m2
06:38 58.3 °F 54.7 °F 30.2 in NNW 2 mph 6 mph 88% 0 in 18 W/m2
06:43 58.3 °F 54.7 °F 30.2 in West 2 mph 4 mph 88% 0 in 23 W/m2
06:48 58.3 °F 54.7 °F 30.2 in WSW 4 mph 9 mph 88% 0 in 30 W/m2
06:53 58.3 °F 54.7 °F 30.2 in West 2.9 mph 6 mph 88% 0 in 35 W/m2
06:58 58.3 °F 54.7 °F 30.2 in WNW 2.9 mph 7 mph 88% 0 in 42 W/m2
07:03 58.3 °F 55 °F 30.2 in West 2 mph 6 mph 89% 0 in 54 W/m2
07:08 58.3 °F 54.7 °F 30.2 in West 2 mph 4 mph 88% 0 in 65 W/m2
07:13 58.5 °F 55.2 °F 30.2 in NW 2 mph 6 mph 89% 0 in 74 W/m2
07:18 58.5 °F 54.9 °F 30.2 in WNW 2 mph 3 mph 88% 0 in 86 W/m2
07:23 58.5 °F 54.9 °F 30.2 in NW 0.9 mph 3 mph 88% 0 in 83 W/m2
07:28 58.6 °F 55.4 °F 30.2 in WSW 0.9 mph 2 mph 89% 0 in 98 W/m2
07:33 58.8 °F 55.6 °F 30.2 in NE 2 mph 3 mph 89% 0 in 125 W/m2
07:38 59 °F 55.4 °F 30.2 in ENE 4 mph 6 mph 88% 0 in 130 W/m2
07:43 59.2 °F 55.6 °F 30.2 in ENE 2 mph 2 mph 88% 0 in 176 W/m2
07:48 59.4 °F 55.8 °F 30.2 in North 0.9 mph 6 mph 88% 0 in 139 W/m2
07:53 59.4 °F 55.4 °F 30.2 in Calm   4 mph 87% 0 in 135 W/m2
07:58 59.4 °F 55.4 °F 30.2 in WNW 2 mph 3 mph 87% 0 in 149 W/m2
08:03 59.4 °F 55.4 °F 30.2 in NNE 0.9 mph 2 mph 87% 0 in 105 W/m2
08:09 59.4 °F 55.4 °F 30.2 in East 2 mph 5 mph 87% 0 in 105 W/m2
08:14 59.5 °F 55.6 °F 30.2 in NNW 0.9 mph 2 mph 87% 0 in 125 W/m2
08:19 59.5 °F 55.6 °F 30.2 in East 2.9 mph 7 mph 87% 0 in 77 W/m2
08:24 59.4 °F 55.2 °F 30.2 in NE 2 mph 5 mph 86% 0 in 81 W/m2
08:29 59.2 °F 55.4 °F 30.2 in WNW 2 mph 4 mph 87% 0 in 100 W/m2
08:34 59.2 °F 55.4 °F 30.2 in NNW 4 mph 4 mph 87% 0 in 90 W/m2
08:39 59.2 °F 55.4 °F 30.2 in NNE 0.9 mph 4 mph 87% 0 in 100 W/m2
08:44 59.2 °F 55.4 °F 30.2 in East 2.9 mph 5 mph 87% 0 in 76 W/m2
08:49 59.2 °F 55.4 °F 30.2 in WNW 0.9 mph 3 mph 87% 0 in 63 W/m2
08:54 59.2 °F 55.4 °F 30.2 in NNW 2 mph 4 mph 87% 0 in 56 W/m2
08:59 59.2 °F 55.4 °F 30.2 in Calm   4 mph 87% 0 in 116 W/m2
09:04 59.2 °F 55.4 °F 30.2 in ESE 0.9 mph 5 mph 87% 0 in 167 W/m2
09:09 59.4 °F 55.4 °F 30.2 in Calm   2 mph 87% 0 in 179 W/m2
09:14 59.5 °F 55.6 °F 30.2 in Calm   4 mph 87% 0 in 193 W/m2
09:19 59.7 °F 55.8 °F 30.2 in Calm   1 mph 87% 0 in 262 W/m2
09:24 60.1 °F 55.9 °F 30.2 in Calm   3 mph 86% 0 in 267 W/m2
09:34 60.3 °F 55.8 °F 30.2 in WNW 2 mph 8 mph 85% 0 in 151 W/m2
09:39 60.3 °F 55.8 °F 30.2 in NNW 2.9 mph 4 mph 85% 0 in 195 W/m2
09:44 60.3 °F 55.8 °F 30.2 in NE 4 mph 6 mph 85% 0 in 192 W/m2
09:49 60.3 °F 55.8 °F 30.2 in WNW 6 mph 7 mph 85% 0 in 186 W/m2
09:54 60.3 °F 55.8 °F 30.2 in East 0.9 mph 5 mph 85% 0 in 185 W/m2
09:59 60.3 °F 55.4 °F 30.2 in NE 0.9 mph 3 mph 84% 0 in 162 W/m2
10:04 60.3 °F 55.4 °F 30.2 in NW 4 mph 5 mph 84% 0 in 158 W/m2
10:09 60.3 °F 55.8 °F 30.2 in North 2 mph 4 mph 85% 0 in 178 W/m2
10:14 60.3 °F 55.4 °F 30.2 in North 2 mph 5 mph 84% 0 in 202 W/m2
10:19 60.3 °F 55.4 °F 30.2 in SE 0.9 mph 5 mph 84% 0 in 207 W/m2
10:24 60.4 °F 55.6 °F 30.2 in NNW 2.9 mph 5 mph 84% 0 in 213 W/m2
10:29 60.4 °F 55.6 °F 30.2 in NNW 0.9 mph 6 mph 84% 0 in 214 W/m2
10:34 60.4 °F 55.6 °F 30.2 in WNW 4 mph 7 mph 84% 0 in 174 W/m2
10:39 60.4 °F 55.6 °F 30.2 in NW 2.9 mph 6 mph 84% 0 in 193 W/m2
10:44 60.4 °F 55.6 °F 30.2 in NNW 0.9 mph 5 mph 84% 0 in 178 W/m2
10:49 60.4 °F 55.6 °F 30.2 in WNW 4 mph 5 mph 84% 0 in 179 W/m2
10:54 60.4 °F 55.6 °F 30.2 in WNW 2 mph 4 mph 84% 0 in 172 W/m2
10:59 60.4 °F 55.6 °F 30.2 in NE 4 mph 5 mph 84% 0 in 174 W/m2
11:04 60.6 °F 55.8 °F 30.2 in NNW 4 mph 6 mph 84% 0 in 181 W/m2
11:09 60.6 °F 55.8 °F 30.2 in ENE 0.9 mph 3 mph 84% 0 in 190 W/m2
11:14 60.8 °F 55.9 °F 30.2 in WNW 0.9 mph 5 mph 84% 0 in 190 W/m2
11:19 61 °F 56.1 °F 30.2 in North 0.9 mph 3 mph 84% 0 in 218 W/m2
11:24 61.2 °F 56.3 °F 30.2 in NNW 8.1 mph 8 mph 84% 0 in 213 W/m2
11:29 61.3 °F 56.1 °F 30.2 in NW 2 mph 3 mph 83% 0 in 237 W/m2
11:34 61.3 °F 56.1 °F 30.2 in NNE 2 mph 3 mph 83% 0 in 251 W/m2
11:39 61.3 °F 56.1 °F 30.2 in NE 2.9 mph 4 mph 83% 0 in 279 W/m2
11:44 61.7 °F 56.1 °F 30.2 in Calm   3 mph 82% 0 in 301 W/m2
11:49 61.9 °F 56.7 °F 30.2 in Calm   4 mph 83% 0 in 285 W/m2
11:54 62.1 °F 56.5 °F 30.2 in WNW 0.9 mph 5 mph 82% 0 in 257 W/m2
11:59 62.2 °F 56.7 °F 30.2 in WNW 4 mph 4 mph 82% 0 in 213 W/m2
12:04 62.2 °F 56.7 °F 30.2 in ENE 2 mph 3 mph 82% 0 in 209 W/m2
12:09 62.4 °F 56.5 °F 30.2 in WNW 0.9 mph 4 mph 81% 0 in 246 W/m2
12:14 62.4 °F 56.5 °F 30.2 in SW 0.9 mph 3 mph 81% 0 in 290 W/m2
12:19 62.4 °F 56.5 °F 30.2 in North 2.9 mph 3 mph 81% 0 in 279 W/m2
12:24 62.4 °F 56.5 °F 30.2 in NNW 4 mph 5 mph 81% 0 in 250 W/m2
12:29 62.4 °F 56.5 °F 30.2 in North 2 mph 5 mph 81% 0 in 248 W/m2
12:34 62.6 °F 56.7 °F 30.2 in ENE 4 mph 6 mph 81% 0 in 279 W/m2
12:39 62.8 °F 56.5 °F 30.2 in ESE 0.9 mph 4 mph 80% 0 in 253 W/m2
12:44 62.8 °F 56.8 °F 30.2 in ENE 4 mph 8 mph 81% 0 in 230 W/m2
12:49 62.8 °F 56.5 °F 30.2 in NW 0.9 mph 4 mph 80% 0 in 223 W/m2
12:54 62.8 °F 56.5 °F 30.2 in NNE 2.9 mph 4 mph 80% 0 in 223 W/m2
12:59 62.8 °F 56.8 °F 30.2 in ENE 2 mph 3 mph 81% 0 in 223 W/m2
13:04 62.8 °F 56.8 °F 30.2 in NW 2 mph 4 mph 81% 0 in 262 W/m2
13:09 62.6 °F 56.7 °F 30.2 in Calm   6 mph 81% 0 in 230 W/m2
13:14 62.6 °F 56.3 °F 30.2 in NNW 2 mph 7 mph 80% 0 in 229 W/m2
13:19 62.4 °F 56.5 °F 30.2 in WNW 0.9 mph 3 mph 81% 0 in 216 W/m2
13:24 62.4 °F 56.5 °F 30.2 in NE 0.9 mph 4 mph 81% 0 in 230 W/m2
13:29 62.6 °F 57 °F 30.2 in NNE 0.9 mph 3 mph 82% 0 in 229 W/m2
13:34 62.8 °F 56.8 °F 30.2 in WNW 2 mph 4 mph 81% 0 in 202 W/m2
13:39 62.8 °F 56.8 °F 30.2 in NNW 4 mph 5 mph 81% 0 in 179 W/m2
13:44 62.4 °F 56.5 °F 30.2 in NW 0.9 mph 4 mph 81% 0 in 171 W/m2
13:49 62.2 °F 56.3 °F 30.2 in West 2.9 mph 7 mph 81% 0 in 181 W/m2
13:54 62.1 °F 56.5 °F 30.2 in WNW 2 mph 2 mph 82% 0 in 199 W/m2
13:59 62.2 °F 56.3 °F 30.2 in NW 2.9 mph 7 mph 81% 0 in 206 W/m2
14:04 62.2 °F 56.7 °F 30.2 in NNW 4.9 mph 5 mph 82% 0 in 213 W/m2
14:09 62.4 °F 56.5 °F 30.2 in NNW 2 mph 5 mph 81% 0 in 223 W/m2
14:14 62.4 °F 56.5 °F 30.2 in ESE 2 mph 4 mph 81% 0 in 236 W/m2
14:19 62.8 °F 56.8 °F 30.2 in NE 4 mph 5 mph 81% 0 in 243 W/m2
14:24 62.8 °F 56.5 °F 30.2 in NNW 2 mph 5 mph 80% 0 in 281 W/m2
14:29 62.8 °F 56.5 °F 30.2 in WNW 2.9 mph 6 mph 80% 0 in 311 W/m2
14:34 62.8 °F 56.5 °F 30.2 in West 4 mph 7 mph 80% 0 in 285 W/m2
14:39 62.6 °F 56.3 °F 30.2 in Calm   5 mph 80% 0 in 295 W/m2
14:44 62.8 °F 56.8 °F 30.2 in North 2 mph 4 mph 81% 0 in 287 W/m2
14:49 63 °F 56.7 °F 30.2 in WNW 2.9 mph 4 mph 80% 0 in 294 W/m2
14:54 63.1 °F 56.5 °F 30.2 in WNW 4 mph 7 mph 79% 0 in 290 W/m2
14:59 63 °F 56.3 °F 30.2 in WNW 2.9 mph 4 mph 79% 0 in 304 W/m2
15:04 63.1 °F 56.5 °F 30.2 in WNW 2 mph 8 mph 79% 0 in 308 W/m2
15:09 63.3 °F 56.7 °F 30.2 in NNW 4 mph 4 mph 79% 0 in 360 W/m2
15:14 63.7 °F 57 °F 30.2 in WNW 0.9 mph 8 mph 79% 0 in 373 W/m2
15:19 63.9 °F 56.8 °F 30.2 in NNW 2 mph 5 mph 78% 0 in 418 W/m2
15:24 64 °F 57 °F 30.2 in Calm   5 mph 78% 0 in 364 W/m2
15:29 64.4 °F 57 °F 30.2 in WNW 2 mph 4 mph 77% 0 in 352 W/m2
15:34 64.6 °F 57.2 °F 30.2 in ENE 0.9 mph 3 mph 77% 0 in 338 W/m2
15:40 64.6 °F 56.8 °F 30.2 in WNW 0.9 mph 3 mph 76% 0 in 339 W/m2
15:45 64.6 °F 57.2 °F 30.2 in Calm   5 mph 77% 0 in 327 W/m2
15:50 64.6 °F 56.8 °F 30.2 in WNW 2 mph 5 mph 76% 0 in 316 W/m2
15:55 64.6 °F 56.8 °F 30.2 in WNW 4 mph 7 mph 76% 0 in 329 W/m2
16:00 64.6 °F 56.8 °F 30.2 in East 0.9 mph 6 mph 76% 0 in 302 W/m2
16:05 64.8 °F 57 °F 30.2 in Calm   5 mph 76% 0 in 239 W/m2
16:10 64.6 °F 56.8 °F 30.2 in NNW 2.9 mph 4 mph 76% 0 in 214 W/m2
16:15 64.6 °F 57.2 °F 30.2 in WNW 6.9 mph 7 mph 77% 0 in 236 W/m2
16:20 64.6 °F 56.8 °F 30.2 in NNW 2 mph 5 mph 76% 0 in 244 W/m2
16:25 64.6 °F 56.8 °F 30.2 in WNW 2.9 mph 5 mph 76% 0 in 220 W/m2
16:30 64.4 °F 57 °F 30.2 in WNW 4 mph 6 mph 77% 0 in 221 W/m2
16:35 64.6 °F 57.2 °F 30.2 in Calm   5 mph 77% 0 in 227 W/m2
16:40 64.8 °F 57 °F 30.2 in ENE 2 mph 3 mph 76% 0 in 200 W/m2
16:45 64.9 °F 57.6 °F 30.2 in NE 0.9 mph 4 mph 77% 0 in 216 W/m2
16:50 65.1 °F 57.7 °F 30.2 in WNW 2 mph 6 mph 77% 0 in 234 W/m2
16:55 65.1 °F 57.7 °F 30.2 in WNW 6.9 mph 7 mph 77% 0 in 229 W/m2
17:00 64.9 °F 57.6 °F 30.2 in West 6 mph 8 mph 77% 0 in 244 W/m2
17:05 64.8 °F 57.4 °F 30.2 in WNW 2 mph 7 mph 77% 0 in 258 W/m2
17:10 64.9 °F 57.6 °F 30.2 in West 2.9 mph 5 mph 77% 0 in 258 W/m2
17:15 64.9 °F 57.6 °F 30.2 in WNW 2 mph 6 mph 77% 0 in 225 W/m2
17:20 64.9 °F 57.6 °F 30.2 in West 2.9 mph 6 mph 77% 0 in 216 W/m2
17:25 64.9 °F 57.6 °F 30.2 in WNW 2.9 mph 4 mph 77% 0 in 163 W/m2
17:30 65.1 °F 57.7 °F 30.2 in WNW 4 mph 4 mph 77% 0 in 111 W/m2
17:35 65.1 °F 57.4 °F 30.2 in North 2.9 mph 3 mph 76% 0 in 84 W/m2
17:40 65.1 °F 57.4 °F 30.2 in NW 2 mph 4 mph 76% 0 in 91 W/m2
17:45 65.1 °F 58.1 °F 30.2 in NNW 2.9 mph 4 mph 78% 0 in 104 W/m2
17:50 64.9 °F 57.9 °F 30.2 in NNW 2.9 mph 5 mph 78% 0 in 113 W/m2
17:55 64.9 °F 57.6 °F 30.2 in NNW 2 mph 3 mph 77% 0 in 120 W/m2
18:01 64.9 °F 57.6 °F 30.2 in NW 4 mph 4 mph 77% 0 in 121 W/m2
18:06 64.9 °F 57.6 °F 30.2 in NW 2 mph 6 mph 77% 0 in 135 W/m2
18:11 64.9 °F 57.6 °F 30.2 in NNW 4.9 mph 5 mph 77% 0 in 141 W/m2
18:16 64.9 °F 57.6 °F 30.2 in NW 2 mph 4 mph 77% 0 in 132 W/m2
18:21 64.9 °F 57.2 °F 30.2 in West 2.9 mph 5 mph 76% 0 in 109 W/m2
18:26 64.9 °F 57.6 °F 30.2 in NE 2.9 mph 4 mph 77% 0 in 107 W/m2
18:31 65.1 °F 57.7 °F 30.2 in ENE 2 mph 4 mph 77% 0 in 113 W/m2
18:36 65.1 °F 57.7 °F 30.2 in WNW 2 mph 5 mph 77% 0 in 84 W/m2
18:41 64.9 °F 57.6 °F 30.2 in West 2 mph 3 mph 77% 0 in 65 W/m2
18:46 64.9 °F 57.6 °F 30.2 in North 4.9 mph 5 mph 77% 0 in 72 W/m2
18:51 64.8 °F 57.4 °F 30.2 in NW 2.9 mph 4 mph 77% 0 in 83 W/m2
18:56 64.8 °F 57.7 °F 30.2 in WNW 2.9 mph 8 mph 78% 0 in 88 W/m2
19:01 64.8 °F 57.7 °F 30.2 in NW 2 mph 4 mph 78% 0 in 102 W/m2
19:06 64.8 °F 57.7 °F 30.2 in West 2 mph 8 mph 78% 0 in 118 W/m2
19:11 64.8 °F 57.7 °F 30.2 in West 6 mph 7 mph 78% 0 in 114 W/m2
19:16 64.8 °F 57.7 °F 30.2 in WSW 4 mph 7 mph 78% 0 in 102 W/m2
19:21 64.6 °F 57.9 °F 30.2 in WNW 2.9 mph 4 mph 79% 0 in 81 W/m2
19:26 64.6 °F 57.9 °F 30.2 in NNW 2 mph 4 mph 79% 0 in 77 W/m2
19:31 64.6 °F 57.9 °F 30.2 in East 2 mph 5 mph 79% 0 in 74 W/m2
19:36 64.6 °F 57.6 °F 30.2 in WNW 2 mph 5 mph 78% 0 in 76 W/m2
19:41 64.4 °F 57.7 °F 30.2 in NW 4 mph 6 mph 79% 0 in 76 W/m2
19:46 64.2 °F 57.6 °F 30.2 in West 2.9 mph 4 mph 79% 0 in 62 W/m2
19:51 64.2 °F 57.6 °F 30.2 in WSW 2.9 mph 4 mph 79% 0 in 56 W/m2
19:56 64 °F 57.4 °F 30.2 in NW 0.9 mph 2 mph 79% 0 in 58 W/m2
20:01 64 °F 57.4 °F 30.2 in NW 2 mph 3 mph 79% 0 in 60 W/m2
20:06 64 °F 57.4 °F 30.2 in WNW 2 mph 3 mph 79% 0 in 49 W/m2
20:11 64 °F 57 °F 30.2 in WNW 4 mph 8 mph 78% 0 in 42 W/m2
20:16 64 °F 57.4 °F 30.2 in NNE 2 mph 7 mph 79% 0 in 42 W/m2
20:21 63.9 °F 57.2 °F 30.2 in WNW 0.9 mph 8 mph 79% 0 in 42 W/m2
20:26 63.9 °F 57.2 °F 30.2 in WNW 2.9 mph 7 mph 79% 0 in 39 W/m2
20:31 63.9 °F 57.2 °F 30.2 in WNW 2 mph 5 mph 79% 0 in 37 W/m2
20:36 63.9 °F 57.2 °F 30.2 in NNW 2 mph 7 mph 79% 0 in 33 W/m2
20:41 63.7 °F 57 °F 30.2 in NW 2.9 mph 9 mph 79% 0 in 26 W/m2
20:46 63.7 °F 57.4 °F 30.2 in NNW 2.9 mph 5 mph 80% 0 in 18 W/m2
20:51 63.7 °F 57.4 °F 30.2 in NNW 2.9 mph 9 mph 80% 0 in 18 W/m2
20:56 63.5 °F 57.2 °F 30.2 in NNW 2.9 mph 3 mph 80% 0 in 16 W/m2
21:01 63.5 °F 57.6 °F 30.2 in Calm   7 mph 81% 0 in 11 W/m2
21:06 63.3 °F 57 °F 30.2 in WSW 4 mph 4 mph 80% 0 in 7 W/m2
21:11 63.3 °F 57 °F 30.2 in WNW 0.9 mph 3 mph 80% 0 in 5 W/m2
21:16 63.3 °F 57 °F 30.2 in NW 0.9 mph 2 mph 80% 0 in 0 W/m2
21:21 63.1 °F 56.8 °F 30.2 in NNW 2 mph 4 mph 80% 0 in 0 W/m2
21:26 63.1 °F 56.8 °F 30.2 in WNW 2.9 mph 4 mph 80% 0 in 0 W/m2
21:31 63 °F 56.7 °F 30.2 in NNW 2.9 mph 7 mph 80% 0 in 0 W/m2
21:36 63 °F 56.7 °F 30.2 in WNW 4 mph 6 mph 80% 0 in 0 W/m2
21:41 63 °F 56.7 °F 30.2 in WSW 4 mph 8 mph 80% 0 in 0 W/m2
21:46 62.8 °F 56.8 °F 30.2 in WNW 2 mph 4 mph 81% 0 in 0 W/m2
21:51 62.8 °F 56.8 °F 30.2 in WNW 2 mph 3 mph 81% 0 in 0 W/m2
21:56 62.8 °F 56.8 °F 30.2 in Calm   2 mph 81% 0 in 0 W/m2
22:01 62.8 °F 56.8 °F 30.2 in NW 2 mph 3 mph 81% 0 in 0 W/m2
22:06 62.6 °F 56.7 °F 30.2 in NW 4 mph 5 mph 81% 0 in 0 W/m2
22:11 62.6 °F 56.7 °F 30.2 in WNW 4 mph 4 mph 81% 0 in 0 W/m2
22:16 62.4 °F 56.5 °F 30.2 in NW 2.9 mph 6 mph 81% 0 in 0 W/m2
22:21 62.4 °F 56.8 °F 30.2 in WNW 2.9 mph 4 mph 82% 0 in 0 W/m2
22:26 62.4 °F 56.5 °F 30.2 in WNW 2 mph 8 mph 81% 0 in 0 W/m2
22:31 62.4 °F 56.5 °F 30.2 in WNW 0.9 mph 2 mph 81% 0 in 0 W/m2
22:36 62.4 °F 56.8 °F 30.2 in NNE 0.9 mph 8 mph 82% 0 in 0 W/m2
22:41 62.2 °F 56.3 °F 30.2 in ESE 0.9 mph 3 mph 81% 0 in 0 W/m2
22:46 62.2 °F 56.3 °F 30.2 in NNW 2.9 mph 4 mph 81% 0 in 0 W/m2
22:51 62.2 °F 56.7 °F 30.2 in South 0.9 mph 2 mph 82% 0 in 0 W/m2
22:56 62.2 °F 56.7 °F 30.2 in NNW 0.9 mph 3 mph 82% 0 in 0 W/m2
23:01 62.1 °F 56.5 °F 30.2 in NNE 0.9 mph 1 mph 82% 0 in 0 W/m2
23:06 62.1 °F 56.5 °F 30.2 in NW 2 mph 3 mph 82% 0 in 0 W/m2
23:11 62.1 °F 56.5 °F 30.2 in ENE 0.9 mph 1 mph 82% 0 in 0 W/m2
23:16 62.1 °F 56.8 °F 30.2 in NW 0.9 mph 1 mph 83% 0 in 0 W/m2
23:21 62.1 °F 56.5 °F 30.2 in Calm   2 mph 82% 0 in 0 W/m2
23:26 61.9 °F 56.3 °F 30.2 in ENE 2 mph 2 mph 82% 0 in 0 W/m2
23:31 61.9 °F 56.3 °F 30.2 in NNE 0.9 mph 1 mph 82% 0 in 0 W/m2
23:36 61.9 °F 56.3 °F 30.2 in Calm   1 mph 82% 0 in 0 W/m2
23:41 61.9 °F 56.3 °F 30.2 in Calm   1 mph 82% 0 in 0 W/m2
23:46 61.9 °F 56.3 °F 30.2 in Calm   1 mph 82% 0 in 0 W/m2
23:52 61.7 °F 56.1 °F 30.2 in NNE 0.9 mph 3 mph 82% 0 in 0 W/m2
23:57 61.7 °F 56.1 °F 30.2 in Calm     82% 0 in 0 W/m2
Juneau County Weather
Compliments of Weather Underground - 2 mb